Change the Weather History Date:

Tuesday, April 22, 2014

  Actual Average Record
Temperature  
Mean Temperature 53 °F -  
Max Temperature 60 °F 55 °F 60 °F (2007)
Min Temperature 46 °F 45 °F 37 °F (2009)
Degree Days  
Heating Degree Days 12    
Growing Degree Days 3 (Base 50)    
Moisture  
Dew Point 48 °F    
Average Humidity 91    
Maximum Humidity 100    
Minimum Humidity 82    
Precipitation  
Precipitation 0.00 in - - ()
Sea Level Pressure  
Sea Level Pressure 29.87 in    
Wind  
Wind Speed 12 mph ()    
Max Wind Speed 16 mph    
Max Gust Speed 28 mph    
Visibility 4.7 miles    
Events Rain    
Averages and records for this station are not official NWS values.
T = Trace of Precipitation, MM = Missing Value Source: Averaged Metar Reports

Daily Weather History Graph

Daily Weather History Graph

Search for Another Location

Airport or City:

Trip Planner

Search our weather history database for the weather conditions in past years. The results will help you decide how hot, cold, wet, or windy it might be!

Date:

Astronomy

Apr. 22, 2014 Rise Set
Actual Time 5:48 AM BST 8:34 PM BST
Civil Twilight 5:05 AM BST 9:17 PM BST
Nautical Twilight 4:09 AM BST 10:13 PM BST
Astronomical Twilight 2:56 AM BST 11:29 PM BST
Moon 2:48 AM BST (4/22) 12:00 PM BST (4/22)
Length of Visible Light 16h 11m
Length of Day
14h 46m
Waning Gibbous, 49% of the Moon is Illuminated
Apr 22
Waning Gibbous
Apr 29
New
May 7
First Quarter
May 14
Full
May 21
Last Quarter

Hourly Weather History & Observations

Time (BST) Temp. Windchill Dew Point Humidity Pressure Visibility Wind Dir Wind Speed Gust Speed Precip Events Conditions
6:20 AM 50.0 °F - 44.6 °F 82% 29.89 in 6.2 mi NE 15.0 mph - N/A   Partly Cloudy
6:50 AM 50.0 °F - 44.6 °F 82% 29.89 in 6.2 mi NE 15.0 mph 27.6 mph N/A   Partly Cloudy
7:20 AM 50.0 °F - 44.6 °F 82% 29.89 in 6.2 mi NE 13.8 mph 25.3 mph N/A   Light Drizzle
7:50 AM 50.0 °F - 46.4 °F 87% 29.89 in 5.6 mi ENE 10.4 mph - N/A Rain Light Rain
8:20 AM 50.0 °F - 46.4 °F 87% 29.89 in 5.6 mi ENE 13.8 mph - N/A Rain Light Rain
8:50 AM 50.0 °F - 46.4 °F 87% 29.89 in 4.3 mi ENE 9.2 mph - N/A Rain Rain
9:20 AM 50.0 °F - 46.4 °F 87% 29.89 in 4.3 mi NE 9.2 mph - N/A Rain Light Rain
9:50 AM 50.0 °F - 46.4 °F 87% 29.89 in 4.3 mi ENE 8.1 mph - N/A Rain Light Rain
10:20 AM 50.0 °F - 46.4 °F 87% 29.89 in 4.3 mi ENE 10.4 mph - N/A Rain Light Rain
10:50 AM 50.0 °F - 48.2 °F 94% 29.89 in 4.3 mi ENE 12.7 mph - N/A Rain Rain
11:20 AM 50.0 °F - 48.2 °F 94% 29.89 in 4.3 mi ENE 12.7 mph - N/A Rain Rain
11:50 AM 50.0 °F - 48.2 °F 94% 29.89 in 5.0 mi ENE 12.7 mph - N/A   Mostly Cloudy
12:20 PM 51.8 °F - 50.0 °F 94% 29.86 in 5.0 mi NE 11.5 mph - N/A   Mostly Cloudy
12:50 PM 53.6 °F - 50.0 °F 88% 29.86 in 5.0 mi NE 12.7 mph - N/A   Mostly Cloudy
1:20 PM 53.6 °F - 50.0 °F 88% 29.86 in 5.0 mi ENE 12.7 mph - N/A   Mostly Cloudy
1:50 PM 53.6 °F - 50.0 °F 88% 29.86 in 5.0 mi ENE 11.5 mph - N/A   Mostly Cloudy
2:20 PM 53.6 °F - 50.0 °F 88% 29.86 in 5.0 mi ENE 11.5 mph - N/A Rain Light Rain Showers
2:50 PM 51.8 °F - 48.2 °F 88% 29.86 in 5.0 mi ENE 16.1 mph - N/A Rain Light Rain Showers
3:20 PM 51.8 °F - 48.2 °F 88% 29.86 in 5.0 mi East 15.0 mph - N/A Rain Light Rain Showers
3:50 PM 50.0 °F - 48.2 °F 94% 29.86 in 5.0 mi East 15.0 mph - N/A   Mostly Cloudy
4:20 PM 50.0 °F - 48.2 °F 94% 29.86 in 4.3 mi ENE 13.8 mph 25.3 mph N/A   Mostly Cloudy
4:50 PM 50.0 °F - 48.2 °F 94% 29.86 in 4.3 mi ENE 15.0 mph - N/A   Mostly Cloudy
5:20 PM 50.0 °F - 48.2 °F 94% 29.86 in 4.3 mi ENE 13.8 mph - N/A   Mostly Cloudy
5:50 PM 60.8 °F - 59.0 °F 94% 29.86 in 3.7 mi ENE 13.8 mph - N/A Rain Light Rain Showers
6:20 PM 50.0 °F - 48.2 °F 94% 29.86 in 3.7 mi East 11.5 mph - N/A   Mostly Cloudy
6:50 PM 46.4 °F 40.4 °F 44.6 °F 93% 29.83 in 3.7 mi ENE 13.8 mph - N/A Rain Rain Showers
7:20 PM 48.2 °F - 48.2 °F 100% 29.83 in 3.7 mi ENE 13.8 mph - N/A Rain Rain Showers
7:50 PM 48.2 °F - 48.2 °F 100% 29.83 in 3.7 mi ENE 13.8 mph - N/A Rain Heavy Rain Showers
8:20 PM 48.2 °F - 48.2 °F 100% 29.83 in 3.7 mi ENE 12.7 mph - N/A Rain Rain Showers